User: anonymous   Login
Location: NJAA Observatory
(40.6819°N, 74.8979°W)
Time: 03:19:07
(UTC-04:00)
Language:

Cosmos 2082 - Orbit

View from above orbital plane
View from above orbital plane
View from above satellite
View from above satellite

Ground track
Ground track

The orbit data is extracted from the following two-line orbital elements,

1 20624U 90046A   16211.30627864 -.00000206  00000-0 -83372-4 0  9997
2 20624  71.0393 170.3581 0014440 168.4234 191.7223 14.14199700351544
Epoch (UTC): 29 July 2016 07:21:02
Eccentricity: 0.0014440
inclination: 71.0393°
perigee height: 834 km
apogee height: 855 km
right ascension of ascending node: 170.3581°
argument of perigee: 168.4234°
revolutions per day: 14.14199700
mean anomaly at epoch: 191.7223°
orbit number at epoch: 35154

The dashed part of the orbit path shows where the satellite is in the earth's shadow,  

DLR